Air Resources Laboratory banner image
Air Resources Laboratory web site National Oceanic and Atmospheric Administration (NOAA)

nj roundup


Office: PHI

ASUS41 KPHI 162313
RWRPHI

REGIONAL WEATHER ROUNDUP
NATIONAL WEATHER SERVICE MOUNT HOLLY NJ
700 PM EDT TUE OCT 16 2018

NOTE:  "FAIR" INDICATES FEW OR NO CLOUDS BELOW 12,000 FEET WITH NO
SIGNIFICANT WEATHER AND/OR OBSTRUCTIONS TO VISIBILITY.

 * = STATION DOES NOT REPORT PRECIPITATION (E.G. RAIN, SNOW, ETC.)
        OR FOG.

NJZ015>026-170000-
SOUTHERN NEW JERSEY

CITY           SKY/WX    TMP DP  RH WIND       PRES   REMARKS
POMONA         FAIR      56  42  59 W5        30.11S
WILDWOOD*      FAIR      52  48  86 CALM      30.11F
MILLVILLE      FAIR      50  45  83 CALM      30.11F
WRIGHTSTOWN    CLEAR     51  36  56 W6        30.07S
TRENTON        FAIR      51  37  58 SW3       30.08F

$$
NJZ001>014-170000-
NORTHERN NEW JERSEY

CITY           SKY/WX    TMP DP  RH WIND       PRES   REMARKS
SUSSEX         FAIR      46  37  71 CALM      30.05S
ANDOVER*         N/A     47  35  63 CALM      30.06S
MORRISTOWN     MOCLDY    50  41  71 S5        30.07S
NEWARK         MOCLDY    51  35  54 SW13      30.08R
TETERBORO      FAIR      53  35  50 SW10      30.06R
CALDWELL       FAIR      50  36  58 S3        30.07S
SOMERVILLE     FAIR      47  40  76 S3        30.06S
ALLAIRE*       FAIR      51  39  63 SW5       30.09F
TOMS RIVER*    FAIR      49  45  86 CALM      30.09F

$$
PAZ043-044-047-054-055-060>062-066>071-170000-
EASTERN PENNSYLVANIA

CITY           SKY/WX    TMP DP  RH WIND       PRES   REMARKS
PHILADELPHIA   CLOUDY    54  34  46 W6        30.10S
NORTH PHILA    FAIR      52  37  56 W6        30.10F
BLUE BELL*     FAIR      46  37  71 CALM      30.11S
DOYLESTOWN     FAIR      48  36  63 S3        30.08S
QUAKERTOWN*    CLEAR     48  37  66 CALM      30.09R
PERKASIE*      FAIR      46  37  71 CALM      30.09R
POTTSTOWN      FAIR      49  36  61 SW3       30.10F
LANCASTER      FAIR      52  38  58 CALM      30.09S
COATESVILLE    FAIR      50  37  62 CALM      30.11R
READING        FAIR      50  39  66 SW3       30.08S
ALLENTOWN      FAIR      50  35  56 W8        30.07F
MOUNT POCONO   FAIR      41  32  70 W6        30.03F
HAZLETON       FAIR      43  32  65 CALM      30.07F
LEHIGHTON      FAIR      45  41  87 CALM      30.08S
WILKES BARRE   FAIR      47  33  58 SW8       30.04S

$$
DEZALL-MDZ008-012-015-019-020-170000-
DELAWARE AND EASTERN MARYLAND

CITY           SKY/WX    TMP DP  RH WIND       PRES   REMARKS
WILMINGTON     FAIR      54  41  61 SW5       30.11S
DOVER          FAIR      56  42  59 W5        30.11S
GEORGETOWN     FAIR      56  47  71 SW3       30.13F
EASTON         MOCLDY    57  46  67 S3        30.15F
ABERDEEN       CLOUDY    50  46  87 CALM      30.12R
PATUXENT       MOCLDY    55  46  71 S5        30.13
OCEAN CITY     FAIR      57  47  69 W3        30.13S
WALLOPS ISLAND CLOUDY    60  48  64 SW3       30.13F
CAMBRIDGE      CLEAR     55  48  76 CALM      30.12S
SALISBURY      CLOUDY    56  48  74 CALM      30.12F

$$
PAZ001-021-NYZ056-072-MDZ011-DCZ001-170000-
OTHER NEARBY LOCATIONS

CITY           SKY/WX    TMP DP  RH WIND       PRES   REMARKS
HARRISBURG     MOCLDY    52  43  71 SW6       30.08S
STATE COLLEGE  CLEAR     45  34  65 SW7       30.06S
WILLIAMSPORT   FAIR      50  31  48 SW6       30.03F
BINGHAMTON     FAIR      43  30  60 CALM      30.00S
NEW YORK CITY  NOT AVBL
BALTIMORE      CLOUDY    54  42  64 CALM      30.12R
WASHINGTON DC  CLOUDY    59  40  49 SW7       30.13R

$$




Office: OKX ASUS41 KOKX 162306 RWROKX Regional Weather Roundup National Weather Service New York NY 700 PM EDT TUE OCT 16 2018 Note: "FAIR" indicates few or no clouds below 12,000 feet with no significant weather and/or obstructions to visibility. NYZ071-072-176-178-NJZ106-104-170000- New York City Metro Area CITY SKY/WX TMP DP RH WIND PRES REMARKS Central Park NOT AVBL Bronx Lehman C N/A 54 32 43 W8 N/A LaGuardia Arpt MOCLDY 55 32 41 SW12 30.06S Queens College N/A 52 34 50 SW12 N/A Kennedy Intl MOCLDY 53 37 54 W14 30.08S Breezy Point N/A 52 N/A N/A W12 N/A Brooklyn Coll N/A 54 34 47 SW10 N/A Staten Island N/A 52 36 54 SW6 N/A Newark/Liberty MOCLDY 51 35 54 SW13 30.08R Teterboro FAIR 53 35 50 SW10 30.06R $$ NYZ177-179-078>081-170000- Long Island New York CITY SKY/WX TMP DP RH WIND PRES REMARKS Jones Beach N/A 54 N/A N/A W10G17 N/A Wantagh N/A 54 36 50 W9 N/A Hempstead N/A 52 37 58 SW5 30.10R Matinecock Pt N/A 55 N/A N/A W20 N/A Farmingdale FAIR 51 35 54 SW8 30.06F MacArthur/ISP MOCLDY 50 38 63 SW7 30.05F Stony Brook N/A 50 37 62 W2 N/A Shirley FAIR 50 37 61 CALM 30.06S Mt Sinai Harb N/A N/A N/A N/A SW5 N/A Westhampton FAIR 45 36 70 CALM 30.07S East Hampton FAIR 45 37 72 CALM 30.06R Southold N/A 48 37 66 SW3 N/A Montauk N/A 51 37 58 SW8 30.06R $$ NYZ052-065-067-170000- Hudson Valley CITY SKY/WX TMP DP RH WIND PRES REMARKS White Plains FAIR 47 38 71 CALM 30.05R Larchmont Harb N/A 54 N/A N/A SW14G21 N/A Croton On Huds N/A 54 N/A N/A SW9 N/A Somers N/A 45 36 70 SW2 N/A Brewster N/A 45 37 76 S1 N/A Newburgh PTCLDY 48 36 61 W6 30.05R Montgomery FAIR 47 37 68 CALM 30.03S Otisville N/A 43 36 75 E1 N/A Warwick N/A 45 37 76 S1 N/A Suffern N/A 46 36 66 S2 N/A Poughkeepsie FAIR 45 35 68 CALM 30.02R Albany FAIR 46 33 60 W5 30.02R $$ NJZ001-105-106-008-010-013-015-019>022-104-170000- New Jersey CITY SKY/WX TMP DP RH WIND PRES REMARKS Newark/Liberty MOCLDY 51 35 54 SW13 30.08R Teterboro FAIR 53 35 50 SW10 30.06R Caldwell FAIR 50 36 58 S3 30.07S Somerville FAIR 47 40 76 S3 30.06S Linden FAIR 52 34 49 CALM 30.08S Perth Amboy N/A 52 N/A N/A SW8 N/A Sussex FAIR 46 37 71 CALM 30.05S Andover N/A 47 35 63 CALM 30.06S Trenton FAIR 51 37 58 SW3 30.08F Millville FAIR 50 45 83 CALM 30.11F Atlantic City FAIR 56 42 59 W5 30.11S Wrightstown CLEAR 51 36 56 W6 30.07S Toms River FAIR 49 45 86 CALM 30.09F Belmar FAIR 51 39 63 SW5 30.09F $$ PAZ047>061-062-071-170000- Eastern Pennsylvania CITY SKY/WX TMP DP RH WIND PRES REMARKS Philadelphia CLOUDY 54 34 46 W6 30.10S Allentown FAIR 50 35 56 W8 30.07F Scranton FAIR 47 33 58 SW8 30.04S $$ CTZ002-004>006-009-010-012-RIZ004-006-007-MAZ004-011-015-170000- Southern New England In CT CITY SKY/WX TMP DP RH WIND PRES REMARKS Bradley Intl FAIR 49 38 65 SW7 30.03R Hartford FAIR 51 35 54 SW5 30.03R Danbury FAIR 47 35 63 CALM 30.05S Wtrbury/Oxford FAIR 45 35 68 S3 30.05R Norwalk Harbor N/A 52 N/A N/A W12 N/A Bridgeport FAIR 51 35 54 W5 30.05S Meriden FAIR 48 36 63 SW3 30.05R New Haven FAIR 54 34 46 W7 30.05R Chester FAIR 46 36 66 W5 30.04R Groton FAIR 50 36 58 W7 30.04R Willimantic FAIR 46 41 82 CALM 30.03R In RI CITY SKY/WX TMP DP RH WIND PRES REMARKS Providence MOCLDY 49 37 63 SW6 30.03R Block Island FAIR 53 39 59 W15 30.05R Westerly FAIR 50 39 66 CALM 30.04R In MA CITY SKY/WX TMP DP RH WIND PRES REMARKS Boston FAIR 54 31 41 W10 30.00R Worcester FAIR 45 32 60 W6 30.00R Westfield FAIR 42 39 89 CALM 30.01R Provincetown FAIR 53 37 54 SW15 30.00R Nantucket FAIR 51 38 60 W9 30.02S $$ ANZ330-335-338-340-345-350-353-355-170000- Coastal Marine Observations STATION/POSITION TIME SKY/WX TEMP WIND PRES VSBY WAVE AIR SEA DIR/SP/G HT/PER (UTC) (F) (DEG/KT/KT) (MB) (MI) (FT/S) NY Harb Entrance 2250 56 67 250/ 16/ 19 1018.3 2/12 20 S Fire Island 2250 58 65 250/ 16/ 21 1018.2 2/ 7 Great South Bay 2215 55 61 260/ 14/ 17 N/A 23 SSW Montauk P 2250 55 64 250/ 17/ 21 1017.9 3/ 8 15 E Barnegat Li 2300 70 N/A 2/ 6 Hudson Canyon 2250 57 250/ 14/ 16 1019.1 4/ 6 Kings Point 2248 56 67 320/ 13/ 16 1018.7 Execution Rocks 2230 67 240/ 14/ 19 N/A Western LI Sound NOT AVBL Central LI Sound 2230 56 68 260/ 17/ 23 N/A 2/ 4 Robbins Reef 2248 53 240/ 9/ 12 1018.7 $$ >>>>>>>>>>>>>>>>>>>>>>>>>>>> KEY <<<<<<<<<<<<<<<<<<<<<<<<<<< > < > SKY/WX - Sky Condition/Present Weather < > TMP - Temperature in Fahrenheit < > DP - Dew Point in Fahrenheit < > RH - Relative Humidity in Percent < > WIND - Direction (from) and Speed in MPH < > PRES - Mean Sea Level Pressure (inches of Hg) < > WCI - Wind Chill Index < > VSB - Visibility in Miles < > HX - Heat Index < > TC - Temperature in Celsius < > VRB - Variable Wind Direction < > < >>>>>>>>>>>>>>>>>>>>>>>>>>>> KEY <<<<<<<<<<<<<<<<<<<<<<<<<<< ASUS41 KOKX 162318 RWROKX Regional Weather Roundup National Weather Service New York NY 700 PM EDT TUE OCT 16 2018 Note: "FAIR" indicates few or no clouds below 12,000 feet with no significant weather and/or obstructions to visibility. NYZ071-072-176-178-NJZ106-104-170000- New York City Metro Area CITY SKY/WX TMP DP RH WIND PRES REMARKS Central Park FAIR 52 37 56 MISG 30.09S Bronx Lehman C N/A 54 32 43 W7 N/A LaGuardia Arpt MOCLDY 55 32 41 SW12 30.06S Queens College N/A 52 34 50 SW10 N/A Kennedy Intl MOCLDY 53 37 54 W14 30.08S Breezy Point N/A 52 N/A N/A W12 N/A Brooklyn Coll N/A 54 34 47 SW12 N/A Staten Island N/A 52 36 54 SW7 N/A Newark/Liberty MOCLDY 51 35 54 SW13 30.08R Teterboro FAIR 53 35 50 SW10 30.06R $$ NYZ177-179-078>081-170000- Long Island New York CITY SKY/WX TMP DP RH WIND PRES REMARKS Jones Beach N/A 54 N/A N/A W10G17 N/A Wantagh N/A 54 37 54 W9 N/A Hempstead N/A 52 37 58 SW2 30.10R Matinecock Pt N/A 55 N/A N/A W20 N/A Farmingdale FAIR 51 35 54 SW8 30.06F MacArthur/ISP MOCLDY 50 38 63 SW7 30.05F Stony Brook N/A 48 37 66 SW2 N/A Shirley FAIR 50 37 61 CALM 30.06S Mt Sinai Harb N/A N/A N/A N/A SW5 N/A Westhampton FAIR 45 36 70 CALM 30.07S East Hampton FAIR 45 37 72 CALM 30.06R Southold N/A 48 37 66 SW3 N/A Montauk N/A 51 37 58 SW8 30.06R $$ NYZ052-065-067-170000- Hudson Valley CITY SKY/WX TMP DP RH WIND PRES REMARKS White Plains FAIR 47 38 71 CALM 30.05R Larchmont Harb N/A 54 N/A N/A SW14G21 N/A Croton On Huds N/A 54 N/A N/A SW9 N/A Somers N/A 45 37 76 SW1 N/A Brewster N/A 43 37 81 SW1 N/A Newburgh PTCLDY 48 36 61 W6 30.05R Montgomery FAIR 47 37 68 CALM 30.03S Otisville N/A 43 36 75 S5 N/A Warwick N/A 43 39 87 S2 N/A Suffern N/A 46 37 71 S1 N/A Poughkeepsie FAIR 45 35 68 CALM 30.02R Albany FAIR 46 33 60 W5 30.02R $$ NJZ001-105-106-008-010-013-015-019>022-104-170000- New Jersey CITY SKY/WX TMP DP RH WIND PRES REMARKS Newark/Liberty MOCLDY 51 35 54 SW13 30.08R Teterboro FAIR 53 35 50 SW10 30.06R Caldwell FAIR 50 36 58 S3 30.07S Somerville FAIR 47 40 76 S3 30.06S Linden FAIR 52 34 50 CALM 30.08R Perth Amboy N/A 52 N/A N/A SW8 N/A Sussex FAIR 46 37 71 CALM 30.05S Andover N/A 47 35 63 CALM 30.06S Trenton FAIR 51 37 58 SW3 30.08F Millville FAIR 50 45 83 CALM 30.11F Atlantic City FAIR 56 42 59 W5 30.11S Wrightstown CLEAR 51 36 56 W6 30.07S Toms River FAIR 49 45 86 CALM 30.09F Belmar FAIR 51 39 63 SW5 30.09F $$ PAZ047>061-062-071-170000- Eastern Pennsylvania CITY SKY/WX TMP DP RH WIND PRES REMARKS Philadelphia CLOUDY 54 34 46 W6 30.10S Allentown FAIR 50 35 56 W8 30.07F Scranton FAIR 47 33 58 SW8 30.04S $$ CTZ002-004>006-009-010-012-RIZ004-006-007-MAZ004-011-015-170000- Southern New England In CT CITY SKY/WX TMP DP RH WIND PRES REMARKS Bradley Intl FAIR 49 38 65 SW7 30.03R Hartford FAIR 51 35 54 SW5 30.03R Danbury FAIR 47 35 63 CALM 30.05S Wtrbury/Oxford FAIR 45 35 68 S3 30.05R Norwalk Harbor N/A 52 N/A N/A W12 N/A Bridgeport FAIR 51 35 54 W5 30.05S Meriden FAIR 48 36 63 SW3 30.05R New Haven FAIR 54 34 46 W7 30.05R Chester FAIR 46 36 66 W5 30.04R Groton FAIR 50 36 58 W7 30.04R Willimantic FAIR 46 41 82 CALM 30.03R In RI CITY SKY/WX TMP DP RH WIND PRES REMARKS Providence MOCLDY 49 37 63 SW6 30.03R Block Island FAIR 53 39 59 W15 30.05R Westerly FAIR 50 39 66 CALM 30.04R In MA CITY SKY/WX TMP DP RH WIND PRES REMARKS Boston FAIR 54 31 41 W10 30.00R Worcester FAIR 45 32 60 W6 30.00R Westfield FAIR 42 39 89 CALM 30.01R Provincetown FAIR 53 37 54 SW15 30.00R Nantucket FAIR 51 38 60 W9 30.02S $$ ANZ330-335-338-340-345-350-353-355-170000- Coastal Marine Observations STATION/POSITION TIME SKY/WX TEMP WIND PRES VSBY WAVE AIR SEA DIR/SP/G HT/PER (UTC) (F) (DEG/KT/KT) (MB) (MI) (FT/S) NY Harb Entrance 2300 56 67 250/ 16/ 19 1018.5 20 S Fire Island 2250 58 65 250/ 16/ 21 1018.2 2/ 7 Great South Bay 2215 55 61 260/ 14/ 17 N/A 23 SSW Montauk P 2250 55 64 250/ 17/ 21 1017.9 3/ 8 15 E Barnegat Li 2300 70 N/A 2/ 6 Hudson Canyon 2250 57 250/ 14/ 16 1019.1 4/ 6 Kings Point 2254 56 67 310/ 14/ 17 1018.9 Execution Rocks 2300 67 240/ 14/ 21 N/A Western LI Sound NOT AVBL Central LI Sound 2245 57 68 260/ 17/ 23 N/A 2/ 4 Robbins Reef 2254 53 230/ 9/ 12 1018.9 $$ >>>>>>>>>>>>>>>>>>>>>>>>>>>> KEY <<<<<<<<<<<<<<<<<<<<<<<<<<< > < > SKY/WX - Sky Condition/Present Weather < > TMP - Temperature in Fahrenheit < > DP - Dew Point in Fahrenheit < > RH - Relative Humidity in Percent < > WIND - Direction (from) and Speed in MPH < > PRES - Mean Sea Level Pressure (inches of Hg) < > WCI - Wind Chill Index < > VSB - Visibility in Miles < > HX - Heat Index < > TC - Temperature in Celsius < > VRB - Variable Wind Direction < > < >>>>>>>>>>>>>>>>>>>>>>>>>>>> KEY <<<<<<<<<<<<<<<<<<<<<<<<<<<